Location: Aulnoy
(48.8410°N, 3.0967°E)
Time: 22:01:04
(UTC+00:00)

BREEZE-M DEB (TANK) - Pass Details

Date: 09 February 2023
Orbit: 761 x 22167 km, 51.4° (Epoch: 28 March)

Event Time Altitude Azimuth Distance (km) Brightness Sun altitude
Rises 20:15:10 0° 237° (WSW) 10,713 9.3 -32.6°
Reaches altitude 10° 20:25:16 10° 237° (WSW) 7,093 8.3 -34.2°
Enters shadow 20:38:59 64° 213° (SSW) 1,571 4.4 -36.3°
